Location: Medlow Airstrip Trail, Medlow Bath NSW 2780, Australia
(33.6682°S, 150.3233°E)
Time: 09:51:43
(UTC+11:00)

Explorer 11/Cluster Stage 4 - Pass Details

Date: 26 September 2019
Orbit: 467 x 1259 km, 28.8° (Epoch: 13 October)

Event Time Altitude Azimuth Distance (km) Brightness Sun altitude
Rises 12:26:48 0° 272° (W) 3,348 10.0 56.3°
Reaches altitude 10° 12:29:24 10° 282° (WNW) 2,541 9.6 56.2°
Maximum altitude 12:34:48 31° 342° (NNW) 1,679 9.7 55.8°
Drops below altitude 10° 12:41:10 10° 41° (NE) 3,011 9.9 55.3°
Sets 12:44:31 0° 50° (NE) 4,064 10.4 55.0°
